VXP1196 KJQF-KHVN

Flight info

Callsign VXP1196
Flight time 1h 24m
Altitude 37000
Route BARMY5 TYI Q64 KALDA SARDI1
Aircraft B738/M-SDE2E3FGHIRWXY/LB1

Departure

Time 2026-04-30 11:34
Airport Concord-Padgett Regional Airport (KJQF)

Arrival

Time 2026-04-30 12:58
Airport Tweed New Haven Airport (KHVN)
Time Latitude Longitude Altitude Speed Heading
2026-04-30 11:25 35.38042 -80.71322 666 ft 0 kts 326°
2026-04-30 11:27 35.38036 -80.71317 666 ft 4 kts 325°
2026-04-30 11:27 35.38015 -80.71296 666 ft 4 kts 313°
2026-04-30 11:27 35.37999 -80.71270 666 ft 4 kts 308°
2026-04-30 11:27 35.37991 -80.71259 666 ft 1 kts 312°
2026-04-30 11:29 35.37992 -80.71259 665 ft 1 kts 313°
2026-04-30 11:30 35.38100 -80.71211 667 ft 12 kts 39°
2026-04-30 11:30 35.38186 -80.71184 669 ft 16 kts 11°
2026-04-30 11:30 35.38325 -80.71151 666 ft 25 kts 10°
2026-04-30 11:31 35.38521 -80.71108 668 ft 29 kts 10°
2026-04-30 11:31 35.38711 -80.71065 666 ft 27 kts 11°
2026-04-30 11:31 35.38892 -80.71024 667 ft 26 kts 10°
2026-04-30 11:31 35.39061 -80.70985 668 ft 24 kts 10°
2026-04-30 11:32 35.39219 -80.70951 668 ft 23 kts 10°
2026-04-30 11:32 35.39372 -80.70916 666 ft 22 kts 10°
2026-04-30 11:32 35.39521 -80.70882 668 ft 21 kts 10°
2026-04-30 11:33 35.39598 -80.70765 661 ft 12 kts 116°
2026-04-30 11:33 35.39397 -80.70774 665 ft 66 kts 190°
2026-04-30 11:33 35.38671 -80.70937 667 ft 144 kts 191°
2026-04-30 11:33 35.37521 -80.71189 1020 ft 179 kts 189°
2026-04-30 11:34 35.36257 -80.71333 1934 ft 186 kts 168°
2026-04-30 11:34 35.35207 -80.70481 2847 ft 186 kts 118°
2026-04-30 11:34 35.34764 -80.69003 3670 ft 190 kts 108°
2026-04-30 11:34 35.34190 -80.67464 4161 ft 213 kts 113°
2026-04-30 11:35 35.33488 -80.65742 4459 ft 236 kts 115°
2026-04-30 11:35 35.32695 -80.63849 4633 ft 264 kts 116°
2026-04-30 11:35 35.31807 -80.61772 4970 ft 285 kts 116°
2026-04-30 11:35 35.30874 -80.59597 5768 ft 291 kts 117°
2026-04-30 11:36 35.29921 -80.57396 6655 ft 295 kts 118°
2026-04-30 11:36 35.28943 -80.55147 7393 ft 303 kts 119°
2026-04-30 11:36 35.27940 -80.52845 8174 ft 309 kts 119°
2026-04-30 11:36 35.26922 -80.50513 9028 ft 312 kts 120°
2026-04-30 11:37 35.25894 -80.48134 9750 ft 320 kts 116°
2026-04-30 11:37 35.25367 -80.45468 10430 ft 332 kts 91°
2026-04-30 11:37 35.25607 -80.42557 10651 ft 356 kts 81°
2026-04-30 11:37 35.26032 -80.39474 10862 ft 379 kts 79°
2026-04-30 11:38 35.26502 -80.36237 11296 ft 392 kts 79°
2026-04-30 11:38 35.26972 -80.32934 11961 ft 396 kts 80°
2026-04-30 11:38 35.27432 -80.29590 12684 ft 400 kts 81°
2026-04-30 11:38 35.27884 -80.26218 13375 ft 404 kts 81°
2026-04-30 11:39 35.28335 -80.22792 13971 ft 411 kts 81°
2026-04-30 11:39 35.28788 -80.19318 14640 ft 415 kts 81°
2026-04-30 11:39 35.29245 -80.15818 15320 ft 418 kts 81°
2026-04-30 11:39 35.29702 -80.12290 15963 ft 422 kts 81°
2026-04-30 11:40 35.30221 -80.08735 16556 ft 427 kts 76°
2026-04-30 11:40 35.31112 -80.05240 17136 ft 432 kts 70°
2026-04-30 11:40 35.32186 -80.01793 17731 ft 435 kts 68°
2026-04-30 11:40 35.33298 -79.98329 18304 ft 439 kts 68°
2026-04-30 11:41 35.34393 -79.94815 18836 ft 444 kts 69°
2026-04-30 11:41 35.35463 -79.91241 19355 ft 449 kts 69°
2026-04-30 11:41 35.36523 -79.87615 19857 ft 454 kts 69°
2026-04-30 11:41 35.37588 -79.83948 20362 ft 460 kts 69°
2026-04-30 11:42 35.38661 -79.80238 20866 ft 463 kts 69°
2026-04-30 11:42 35.39739 -79.76510 21272 ft 469 kts 69°
2026-04-30 11:42 35.40836 -79.72728 21802 ft 471 kts 69°
2026-04-30 11:42 35.41940 -79.68933 22249 ft 475 kts 68°
2026-04-30 11:43 35.43040 -79.65144 22601 ft 481 kts 68°
2026-04-30 11:43 35.44164 -79.61263 23014 ft 484 kts 68°
2026-04-30 11:43 35.45292 -79.57358 23431 ft 488 kts 68°
2026-04-30 11:43 35.46428 -79.53423 23818 ft 492 kts 68°
2026-04-30 11:44 35.47570 -79.49459 24234 ft 494 kts 68°
2026-04-30 11:44 35.48718 -79.45466 24540 ft 499 kts 68°
2026-04-30 11:44 35.49877 -79.41428 24851 ft 504 kts 68°
2026-04-30 11:44 35.51043 -79.37359 25204 ft 507 kts 68°
2026-04-30 11:45 35.52214 -79.33269 25545 ft 510 kts 68°
2026-04-30 11:45 35.53393 -79.29144 25875 ft 513 kts 69°
2026-04-30 11:45 35.54575 -79.25001 26176 ft 517 kts 69°
2026-04-30 11:45 35.55767 -79.20817 26460 ft 521 kts 69°
2026-04-30 11:46 35.56967 -79.16599 26739 ft 524 kts 69°
2026-04-30 11:46 35.58172 -79.12362 27026 ft 528 kts 69°
2026-04-30 11:46 35.59383 -79.08096 27318 ft 530 kts 69°
2026-04-30 11:46 35.60603 -79.03806 27561 ft 534 kts 69°
2026-04-30 11:47 35.61831 -78.99489 27813 ft 537 kts 69°
2026-04-30 11:47 35.63068 -78.95149 28055 ft 540 kts 69°
2026-04-30 11:47 35.64311 -78.90766 28226 ft 545 kts 69°
2026-04-30 11:47 35.65561 -78.86354 28403 ft 549 kts 69°
2026-04-30 11:48 35.66820 -78.81909 28632 ft 552 kts 69°
2026-04-30 11:48 35.68083 -78.77436 28857 ft 556 kts 69°
2026-04-30 11:48 35.69354 -78.72921 29144 ft 558 kts 69°
2026-04-30 11:48 35.70621 -78.68419 29498 ft 558 kts 69°
2026-04-30 11:49 35.71894 -78.63891 29778 ft 560 kts 69°
2026-04-30 11:49 35.73164 -78.59342 30023 ft 563 kts 69°
2026-04-30 11:49 35.74449 -78.54774 30246 ft 566 kts 69°
2026-04-30 11:49 35.75730 -78.50196 30584 ft 566 kts 69°
2026-04-30 11:50 35.77008 -78.45620 30937 ft 565 kts 69°
2026-04-30 11:50 35.78283 -78.41042 31279 ft 565 kts 69°
2026-04-30 11:50 35.79560 -78.36464 31590 ft 566 kts 68°
2026-04-30 11:50 35.80830 -78.31895 31873 ft 565 kts 68°
2026-04-30 11:51 35.82102 -78.27308 32083 ft 566 kts 68°
2026-04-30 11:51 35.83373 -78.22709 32314 ft 568 kts 68°
2026-04-30 11:51 35.84645 -78.18103 32600 ft 568 kts 68°
2026-04-30 11:51 35.85917 -78.13495 32903 ft 567 kts 68°
2026-04-30 11:52 35.87184 -78.08893 33199 ft 567 kts 68°
2026-04-30 11:52 35.88450 -78.04290 33441 ft 568 kts 68°
2026-04-30 11:52 35.89700 -77.99737 33700 ft 568 kts 68°
2026-04-30 11:52 35.90980 -77.95064 33978 ft 567 kts 68°
2026-04-30 11:53 35.92241 -77.90455 34245 ft 567 kts 68°
2026-04-30 11:53 35.93499 -77.85848 34527 ft 566 kts 68°
2026-04-30 11:53 35.94752 -77.81250 34814 ft 565 kts 68°
2026-04-30 11:53 35.96002 -77.76657 35084 ft 564 kts 68°
2026-04-30 11:54 35.97293 -77.72158 35376 ft 560 kts 61°
2026-04-30 11:54 35.99242 -77.68029 35570 ft 543 kts 43°
2026-04-30 11:54 36.01727 -77.64597 35825 ft 532 kts 37°
2026-04-30 11:54 36.04244 -77.61345 36082 ft 530 kts 36°
2026-04-30 11:55 36.06793 -77.58065 36393 ft 528 kts 36°
2026-04-30 11:55 36.09316 -77.54778 36659 ft 527 kts 37°
2026-04-30 11:55 36.11813 -77.51471 36913 ft 523 kts 37°
2026-04-30 11:55 36.14276 -77.48168 36947 ft 522 kts 37°
2026-04-30 11:56 36.19160 -77.41572 36951 ft 517 kts 37°
2026-04-30 11:56 36.23992 -77.35024 36946 ft 513 kts 37°
2026-04-30 11:57 36.28804 -77.28520 36956 ft 511 kts 37°
2026-04-30 11:57 36.33692 -77.22180 36961 ft 506 kts 32°
2026-04-30 11:58 36.38941 -77.16343 36966 ft 509 kts 30°
2026-04-30 11:58 36.44286 -77.10539 36955 ft 512 kts 31°
2026-04-30 11:59 36.49612 -77.04639 36954 ft 514 kts 31°
2026-04-30 11:59 36.54030 -76.99681 36953 ft 515 kts 32°
2026-04-30 12:00 36.59344 -76.93686 36953 ft 515 kts 32°
2026-04-30 12:00 36.64640 -76.87701 36951 ft 514 kts 32°
2026-04-30 12:01 36.69922 -76.81727 36952 ft 512 kts 32°
2026-04-30 12:01 36.75180 -76.75775 36951 ft 509 kts 32°
2026-04-30 12:02 36.80407 -76.69844 36952 ft 507 kts 32°
2026-04-30 12:02 36.85613 -76.63923 36957 ft 506 kts 32°
2026-04-30 12:03 36.93402 -76.55048 36960 ft 505 kts 32°
2026-04-30 12:04 36.98591 -76.49129 36954 ft 505 kts 32°
2026-04-30 12:04 37.03783 -76.43187 36932 ft 506 kts 32°
2026-04-30 12:05 37.08977 -76.37228 36910 ft 507 kts 32°
2026-04-30 12:05 37.14185 -76.31244 36903 ft 508 kts 33°
2026-04-30 12:06 37.19392 -76.25251 36917 ft 509 kts 33°
2026-04-30 12:06 37.24605 -76.19238 36920 ft 509 kts 33°
2026-04-30 12:07 37.29821 -76.13208 36928 ft 510 kts 33°
2026-04-30 12:07 37.35034 -76.07170 36917 ft 511 kts 33°
2026-04-30 12:08 37.40259 -76.01107 36934 ft 511 kts 33°
2026-04-30 12:08 37.45480 -75.95036 36931 ft 511 kts 33°
2026-04-30 12:09 37.50700 -75.88955 36919 ft 511 kts 34°
2026-04-30 12:09 37.56187 -75.83492 36941 ft 492 kts 20°
2026-04-30 12:10 37.62078 -75.79166 36929 ft 489 kts 19°
2026-04-30 12:10 37.67970 -75.74851 36934 ft 490 kts 20°
2026-04-30 12:11 37.73838 -75.70443 36933 ft 491 kts 20°
2026-04-30 12:11 37.79695 -75.66010 36931 ft 491 kts 20°
2026-04-30 12:12 37.85543 -75.61542 36920 ft 494 kts 22°
2026-04-30 12:12 37.91251 -75.56615 36930 ft 498 kts 25°
2026-04-30 12:13 37.96915 -75.51579 36915 ft 497 kts 25°
2026-04-30 12:13 38.02572 -75.46637 36921 ft 497 kts 25°
2026-04-30 12:14 38.08295 -75.41735 36925 ft 495 kts 23°
2026-04-30 12:14 38.14096 -75.37065 36928 ft 494 kts 22°
2026-04-30 12:15 38.19900 -75.32376 36931 ft 495 kts 23°
2026-04-30 12:15 38.25714 -75.27706 36921 ft 488 kts 17°
2026-04-30 12:15 38.28770 -75.25995 36951 ft 476 kts 10°
2026-04-30 12:16 38.31875 -75.24549 36933 ft 474 kts
2026-04-30 12:16 38.38094 -75.21773 36935 ft 475 kts
2026-04-30 12:17 38.47416 -75.17350 36929 ft 477 kts 10°
2026-04-30 12:17 38.53620 -75.14323 36932 ft 478 kts 10°
2026-04-30 12:18 38.59838 -75.11293 36930 ft 478 kts 10°
2026-04-30 12:18 38.65966 -75.07816 36898 ft 499 kts 28°
2026-04-30 12:19 38.71190 -75.01739 36908 ft 510 kts 36°
2026-04-30 12:19 38.76370 -74.95571 36920 ft 508 kts 34°
2026-04-30 12:20 38.81704 -74.89669 36930 ft 503 kts 31°
2026-04-30 12:20 38.87179 -74.84100 36928 ft 502 kts 30°
2026-04-30 12:21 38.89921 -74.81303 36685 ft 507 kts 30°
2026-04-30 12:21 38.92682 -74.78450 36148 ft 510 kts 31°
2026-04-30 12:21 38.95428 -74.75586 35545 ft 508 kts 31°
2026-04-30 12:21 38.98174 -74.72712 34894 ft 509 kts 31°
2026-04-30 12:22 39.00919 -74.69831 34235 ft 510 kts 31°
2026-04-30 12:22 39.03675 -74.66933 33557 ft 512 kts 31°
2026-04-30 12:22 39.06431 -74.64033 32863 ft 513 kts 32°
2026-04-30 12:22 39.09194 -74.61122 32146 ft 514 kts 32°
2026-04-30 12:23 39.11962 -74.58205 31410 ft 515 kts 32°
2026-04-30 12:23 39.14735 -74.55279 30649 ft 516 kts 33°
2026-04-30 12:23 39.17488 -74.52315 29863 ft 517 kts 34°
2026-04-30 12:23 39.20232 -74.49311 29033 ft 518 kts 35°
2026-04-30 12:24 39.22974 -74.46298 28160 ft 518 kts 35°
2026-04-30 12:24 39.25724 -74.43285 27265 ft 519 kts 36°
2026-04-30 12:24 39.28430 -74.40325 26630 ft 513 kts 36°
2026-04-30 12:24 39.31134 -74.37356 25983 ft 508 kts 37°
2026-04-30 12:25 39.33809 -74.34412 25340 ft 502 kts 37°
2026-04-30 12:25 39.36453 -74.31495 24705 ft 497 kts 37°
2026-04-30 12:25 39.39070 -74.28608 24079 ft 493 kts 37°
2026-04-30 12:25 39.41664 -74.25746 23450 ft 487 kts 38°
2026-04-30 12:26 39.44229 -74.22913 22817 ft 482 kts 38°
2026-04-30 12:26 39.46768 -74.20103 22188 ft 478 kts 38°
2026-04-30 12:26 39.49274 -74.17315 21577 ft 474 kts 38°
2026-04-30 12:26 39.51761 -74.14542 20963 ft 469 kts 38°
2026-04-30 12:27 39.54068 -74.11592 20580 ft 463 kts 47°
2026-04-30 12:27 39.56070 -74.08377 20254 ft 457 kts 51°
2026-04-30 12:27 39.58032 -74.05091 19939 ft 465 kts 50°
2026-04-30 12:27 39.60061 -74.01803 19603 ft 468 kts 49°
2026-04-30 12:28 39.62116 -73.98562 19264 ft 463 kts 49°
2026-04-30 12:28 39.64162 -73.95358 18926 ft 459 kts 49°
2026-04-30 12:28 39.66191 -73.92184 18597 ft 455 kts 49°
2026-04-30 12:28 39.68205 -73.89025 18272 ft 453 kts 49°
2026-04-30 12:29 39.70204 -73.85882 17952 ft 451 kts 49°
2026-04-30 12:29 39.72196 -73.82743 17632 ft 450 kts 49°
2026-04-30 12:29 39.74185 -73.79604 17314 ft 449 kts 49°
2026-04-30 12:29 39.76163 -73.76475 16993 ft 448 kts 49°
2026-04-30 12:30 39.78138 -73.73352 16675 ft 447 kts 49°
2026-04-30 12:30 39.80080 -73.70277 16372 ft 445 kts 49°
2026-04-30 12:30 39.82038 -73.67175 16040 ft 443 kts 49°
2026-04-30 12:30 39.83987 -73.64083 15721 ft 441 kts 49°
2026-04-30 12:31 39.85927 -73.61002 15405 ft 438 kts 49°
2026-04-30 12:31 39.87850 -73.57947 15091 ft 435 kts 49°
2026-04-30 12:31 39.89759 -73.54911 14782 ft 432 kts 49°
2026-04-30 12:31 39.91769 -73.52035 14470 ft 428 kts 42°
2026-04-30 12:32 39.93954 -73.49424 14172 ft 425 kts 39°
2026-04-30 12:32 39.96183 -73.46907 13869 ft 422 kts 38°
2026-04-30 12:32 39.98397 -73.44410 13561 ft 420 kts 38°
2026-04-30 12:32 40.00590 -73.41895 13266 ft 419 kts 39°
2026-04-30 12:33 40.02754 -73.39366 12970 ft 416 kts 40°
2026-04-30 12:33 40.04897 -73.36830 12667 ft 415 kts 40°
2026-04-30 12:33 40.07021 -73.34307 12365 ft 412 kts 40°
2026-04-30 12:33 40.09141 -73.31787 12072 ft 411 kts 40°
2026-04-30 12:34 40.11244 -73.29285 11775 ft 407 kts 41°
2026-04-30 12:34 40.13315 -73.26818 11481 ft 398 kts 41°
2026-04-30 12:34 40.15333 -73.24410 11191 ft 387 kts 41°
2026-04-30 12:34 40.17297 -73.22066 10911 ft 378 kts 41°
2026-04-30 12:35 40.19216 -73.19775 10643 ft 369 kts 41°
2026-04-30 12:35 40.21089 -73.17538 10394 ft 360 kts 41°
2026-04-30 12:35 40.22917 -73.15355 10139 ft 351 kts 41°
2026-04-30 12:35 40.24703 -73.13219 9891 ft 345 kts 41°
2026-04-30 12:36 40.26444 -73.11132 9818 ft 332 kts 41°
2026-04-30 12:36 40.28116 -73.09131 9799 ft 319 kts 41°
2026-04-30 12:36 40.29720 -73.07205 9772 ft 307 kts 41°
2026-04-30 12:36 40.31268 -73.05348 9632 ft 299 kts 41°
2026-04-30 12:37 40.32801 -73.03510 9344 ft 298 kts 41°
2026-04-30 12:37 40.34328 -73.01678 9065 ft 296 kts 41°
2026-04-30 12:37 40.35842 -72.99862 8812 ft 294 kts 41°
2026-04-30 12:37 40.37343 -72.98059 8564 ft 291 kts 41°
2026-04-30 12:38 40.38828 -72.96274 8429 ft 289 kts 41°
2026-04-30 12:38 40.40304 -72.94499 8311 ft 287 kts 42°
2026-04-30 12:38 40.41776 -72.92727 8207 ft 287 kts 42°
2026-04-30 12:38 40.43247 -72.90956 8104 ft 288 kts 42°
2026-04-30 12:39 40.44730 -72.89168 8008 ft 292 kts 42°
2026-04-30 12:39 40.46206 -72.87385 7911 ft 292 kts 42°
2026-04-30 12:39 40.47697 -72.85582 7791 ft 291 kts 42°
2026-04-30 12:39 40.49190 -72.83778 7694 ft 291 kts 42°
2026-04-30 12:40 40.50679 -72.81976 7588 ft 291 kts 42°
2026-04-30 12:40 40.52166 -72.80177 7484 ft 290 kts 42°
2026-04-30 12:40 40.53647 -72.78385 7387 ft 289 kts 42°
2026-04-30 12:40 40.55125 -72.76595 7281 ft 288 kts 42°
2026-04-30 12:41 40.56596 -72.74810 7179 ft 287 kts 42°
2026-04-30 12:41 40.58060 -72.73033 7075 ft 286 kts 42°
2026-04-30 12:41 40.59520 -72.71263 6981 ft 285 kts 43°
2026-04-30 12:41 40.61088 -72.69697 6908 ft 282 kts 21°
2026-04-30 12:42 40.62983 -72.69138 6921 ft 281 kts
2026-04-30 12:42 40.64945 -72.69092 6837 ft 282 kts 357°
2026-04-30 12:42 40.66902 -72.69115 6730 ft 281 kts 356°
2026-04-30 12:42 40.68852 -72.69146 6651 ft 280 kts 356°
2026-04-30 12:43 40.70804 -72.69172 6556 ft 281 kts 357°
2026-04-30 12:43 40.72751 -72.69191 6447 ft 280 kts 357°
2026-04-30 12:43 40.74698 -72.69202 6369 ft 279 kts 357°
2026-04-30 12:43 40.76639 -72.69209 6275 ft 279 kts 357°
2026-04-30 12:44 40.78586 -72.69213 6185 ft 280 kts 357°
2026-04-30 12:44 40.80530 -72.69215 6087 ft 279 kts 358°
2026-04-30 12:44 40.82470 -72.69202 5997 ft 279 kts 359°
2026-04-30 12:44 40.84410 -72.69127 5908 ft 279 kts 359°
2026-04-30 12:45 40.86345 -72.69037 5822 ft 278 kts 360°
2026-04-30 12:45 40.88273 -72.68945 5724 ft 277 kts 360°
2026-04-30 12:45 40.90199 -72.68853 5633 ft 277 kts 360°
2026-04-30 12:45 40.92119 -72.68761 5545 ft 275 kts 360°
2026-04-30 12:46 40.94030 -72.68674 5444 ft 274 kts 360°
2026-04-30 12:46 40.95932 -72.68587 5353 ft 273 kts 360°
2026-04-30 12:46 40.97213 -72.68529 5290 ft 272 kts 360°
2026-04-30 12:46 40.99101 -72.68445 5201 ft 271 kts 360°
2026-04-30 12:47 41.00979 -72.68363 5112 ft 270 kts 360°
2026-04-30 12:47 41.02846 -72.68281 5060 ft 267 kts 360°
2026-04-30 12:47 41.04694 -72.68202 4934 ft 265 kts 360°
2026-04-30 12:47 41.06538 -72.68127 4618 ft 265 kts 360°
2026-04-30 12:48 41.08389 -72.68055 4316 ft 265 kts 360°
2026-04-30 12:48 41.10228 -72.67988 4080 ft 263 kts
2026-04-30 12:48 41.12057 -72.67926 4030 ft 264 kts 360°
2026-04-30 12:48 41.13898 -72.67868 4005 ft 264 kts 360°
2026-04-30 12:49 41.15732 -72.67814 4002 ft 263 kts 360°
2026-04-30 12:49 41.17536 -72.67758 4006 ft 263 kts 360°
2026-04-30 12:49 41.19366 -72.67700 4017 ft 263 kts 360°
2026-04-30 12:49 41.21199 -72.67644 4018 ft 264 kts 360°
2026-04-30 12:50 41.23039 -72.67585 4013 ft 264 kts 360°
2026-04-30 12:50 41.24875 -72.67525 4002 ft 264 kts 360°
2026-04-30 12:50 41.26711 -72.67469 4016 ft 264 kts 360°
2026-04-30 12:50 41.28547 -72.67417 4016 ft 264 kts 360°
2026-04-30 12:51 41.30378 -72.67367 4011 ft 264 kts 360°
2026-04-30 12:51 41.32215 -72.67315 4016 ft 264 kts 360°
2026-04-30 12:51 41.34049 -72.67263 4015 ft 263 kts 360°
2026-04-30 12:51 41.35884 -72.67209 4013 ft 263 kts 360°
2026-04-30 12:52 41.37715 -72.67161 4019 ft 263 kts 360°
2026-04-30 12:52 41.39545 -72.67134 3994 ft 262 kts 354°
2026-04-30 12:52 41.41250 -72.67817 3842 ft 254 kts 325°
2026-04-30 12:52 41.42455 -72.69473 3544 ft 249 kts 295°
2026-04-30 12:53 41.43062 -72.71614 3261 ft 247 kts 285°
2026-04-30 12:53 41.43540 -72.73810 3027 ft 244 kts 284°
2026-04-30 12:53 41.43983 -72.75932 2984 ft 231 kts 284°
2026-04-30 12:53 41.44398 -72.77932 2881 ft 218 kts 284°
2026-04-30 12:54 41.44794 -72.79849 2669 ft 214 kts 284°
2026-04-30 12:54 41.45024 -72.81803 2393 ft 214 kts 262°
2026-04-30 12:54 41.44443 -72.83548 2258 ft 207 kts 225°
2026-04-30 12:54 41.43266 -72.84607 2154 ft 205 kts 207°
2026-04-30 12:55 41.41990 -72.85486 2041 ft 208 kts 207°
2026-04-30 12:55 41.40695 -72.86372 1917 ft 211 kts 206°
2026-04-30 12:55 41.39385 -72.87267 1793 ft 211 kts 207°
2026-04-30 12:55 41.38030 -72.87953 1705 ft 206 kts 187°
2026-04-30 12:56 41.36654 -72.88055 1686 ft 191 kts 183°
2026-04-30 12:56 41.35372 -72.88163 1695 ft 181 kts 183°
2026-04-30 12:56 41.34117 -72.88252 1691 ft 181 kts 182°
2026-04-30 12:56 41.32838 -72.88338 1382 ft 182 kts 182°
2026-04-30 12:57 41.31611 -72.88420 1093 ft 172 kts 182°
2026-04-30 12:57 41.30470 -72.88497 848 ft 157 kts 182°
2026-04-30 12:57 41.29408 -72.88569 617 ft 151 kts 182°
2026-04-30 12:57 41.28373 -72.88648 368 ft 148 kts 182°
2026-04-30 12:58 41.27344 -72.88711 103 ft 147 kts 182°
2026-04-30 12:58 41.26382 -72.88773 15 ft 114 kts 183°
2026-04-30 12:58 41.25965 -72.88793 18 ft 22 kts 180°
2026-04-30 12:58 41.25856 -72.88793 18 ft 8 kts 158°
2026-04-30 12:59 41.25843 -72.88724 17 ft 9 kts 60°
2026-04-30 12:59 41.25910 -72.88692 16 ft 13 kts
2026-04-30 12:59 41.26017 -72.88666 16 ft 18 kts 11°
2026-04-30 12:59 41.26157 -72.88634 18 ft 21 kts
2026-04-30 13:00 41.26256 -72.88634 16 ft 13 kts 311°
2026-04-30 13:00 41.26252 -72.88749 16 ft 13 kts 283°
2026-04-30 13:00 41.26331 -72.88777 15 ft 13 kts
2026-04-30 13:00 41.26450 -72.88769 15 ft 23 kts
2026-04-30 13:01 41.26614 -72.88758 14 ft 17 kts
2026-04-30 13:01 41.26705 -72.88838 15 ft 16 kts 312°
2026-04-30 13:01 41.26780 -72.88949 16 ft 14 kts 312°
2026-04-30 13:01 41.26789 -72.88963 16 ft 0 kts 312°
2026-04-30 13:02 41.26791 -72.88966 16 ft 2 kts 313°
2026-04-30 13:02 41.26825 -72.88976 16 ft 8 kts
2026-04-30 13:02 41.26869 -72.89015 16 ft 8 kts 310°
2026-04-30 13:03 41.26883 -72.89035 16 ft 1 kts 311°
2026-04-30 13:03 41.26886 -72.89040 16 ft 0 kts 311°
2026-04-30 13:03 41.26887 -72.89041 16 ft 0 kts 311°
2026-04-30 13:03 41.26887 -72.89042 16 ft 0 kts 311°
2026-04-30 13:06 41.37638 -72.88009 1707 ft 202 kts 183°
2026-04-30 13:07 41.36288 -72.88084 1684 ft 187 kts 184°
2026-04-30 13:07 41.35020 -72.88189 1701 ft 181 kts 183°
2026-04-30 13:07 41.33762 -72.88276 1597 ft 184 kts 182°
2026-04-30 13:07 41.32488 -72.88362 1307 ft 179 kts 182°
2026-04-30 13:08 41.31281 -72.88443 1024 ft 169 kts 182°
2026-04-30 13:08 41.30170 -72.88517 771 ft 154 kts 182°
2026-04-30 13:08 41.29118 -72.88589 555 ft 149 kts 182°
2026-04-30 13:08 41.28087 -72.88667 297 ft 148 kts 182°
2026-04-30 13:09 41.27060 -72.88731 44 ft 145 kts 182°
2026-04-30 13:09 41.26193 -72.88785 17 ft 80 kts 182°
2026-04-30 13:09 41.25922 -72.88795 18 ft 22 kts 182°
2026-04-30 13:09 41.25845 -72.88778 19 ft 8 kts 124°
2026-04-30 13:10 41.25856 -72.88710 18 ft 9 kts 28°
2026-04-30 13:10 41.25936 -72.88686 17 ft 14 kts
2026-04-30 13:10 41.26054 -72.88657 16 ft 20 kts 11°
2026-04-30 13:10 41.26192 -72.88626 17 ft 17 kts
2026-04-30 13:11 41.26260 -72.88666 16 ft 12 kts 266°
2026-04-30 13:11 41.26268 -72.88772 16 ft 12 kts 332°
2026-04-30 13:11 41.26357 -72.88775 15 ft 14 kts
2026-04-30 13:11 41.26496 -72.88766 15 ft 24 kts
2026-04-30 13:12 41.26645 -72.88765 13 ft 16 kts 339°
2026-04-30 13:12 41.26726 -72.88869 16 ft 16 kts 312°
2026-04-30 13:12 41.26789 -72.88963 17 ft 3 kts 312°
2026-04-30 13:13 41.26795 -72.88970 16 ft 3 kts 322°
2026-04-30 13:13 41.26878 -72.89028 16 ft 6 kts 311°
2026-04-30 13:14 41.26884 -72.89037 16 ft 0 kts 311°
2026-04-30 13:14 41.26886 -72.89041 16 ft 0 kts 311°